• MPC Preparation (Info)

  • MPEC 2016-C174: 2016 CS195

    The following Minor Planet Electronic Circular may be linked-to from your own Web pages, but must not otherwise be redistributed electronically.

    A form allowing access to any MPEC is at the bottom of this page.


    Read MPEC 2016-C173 Read MPEC 2016-C175


    M.P.E.C. 2016-C174                               Issued 2016 Feb. 14, 02:09 UT
    
         The Minor Planet Electronic Circulars contain information on unusual
             minor planets and routine data on comets.  They are published
        on behalf of Division F of the International Astronomical Union by the
              Minor Planet Center, Smithsonian Astrophysical Observatory,
                              Cambridge, MA 02138, U.S.A.
    
                 Prepared using the Tamkin Foundation Computer Network
    
                                  MPC@CFA.HARVARD.EDU
                URL https://www.minorplanetcenter.net/    ISSN 1523-6714
    
                                      2016 CS195
    
    Observations:
         K16CJ5S  C2016 02 10.40849 10 54 47.605+30 01 50.92         22.0 wLEC174F51
         K16CJ5S  C2016 02 10.41950 10 54 45.491+30 01 34.87         22.2 wLEC174F51
         K16CJ5S  C2016 02 10.42315 10 54 44.813+30 01 29.19         22.1 wLEC174F51
         K16CJ5S  C2016 02 10.43476 10 54 42.616+30 01 12.19         21.9 wLEC174F51
         K16CJ5S  C2016 02 10.44635 10 54 40.370+30 00 55.15         22.4 wLEC174F51
         K16CJ5S*_C2016 02 11.36468010 51 53.237+29 37 36.35         21.1 RtEC174568
         K16CJ5S _C2016 02 11.36594710 51 52.995+29 37 34.33         21.4 RtEC174568
         K16CJ5S _C2016 02 11.36721610 51 52.757+29 37 32.45         21.5 RtEC174568
         K16CJ5S _C2016 02 12.35552410 48 51.098+29 11 47.91         20.9 RtEC174568
         K16CJ5S _C2016 02 12.35656110 48 50.902+29 11 46.30         21.2 RtEC174568
         K16CJ5S _C2016 02 12.35759710 48 50.704+29 11 44.81         20.8 RtEC174568
         K16CJ5S =C2016 02 13.44642 10 45 28.73 +28 42 37.1          21.4  tEC174568
         K16CJ5S =C2016 02 13.44747 10 45 28.54 +28 42 35.4          21.1  tEC174568
         K16CJ5S =C2016 02 13.44850 10 45 28.33 +28 42 33.7          21.2  tEC174568
    
    Observer details:
    568 Mauna Kea.  Observers R. J. Wainscoat, P. Forshay, C. Wipper.  Measurers
        M. Micheli, R. J. Wainscoat, P. Veres.  3.6-m Canada-France-Hawaii
        Telescope + CCD.
    F51 Pan-STARRS 1, Haleakala.  Observers B. Gibson, T. Goggia, N. Primak,
        A. Schultz, M. Willman.  Measurers K. Chambers, S. Chastel, L. Denneau,
        H. Flewelling, M. Huber, E. Lilly, E. Magnier, R. Wainscoat, C. Waters,
        R. Weryk.  1.8-m Ritchey-Chretien + CCD.
    
    Orbital elements:
    2016 CS195                                               Earth MOID = 0.3924 AU
    Epoch 2016 Jan. 13.0 TT = JDT 2457400.5                 MPC
    M  29.71154              (2000.0)            P               Q
    n   0.52670918     Peri.  100.65020     +0.10643332     -0.98932115
    a   1.5185256      Node   342.29005     +0.73523673     +0.14572595
    e   0.1673580      Incl.   19.10757     +0.66940189     -0.00275819
    P   1.87           H   21.9           G   0.15           U   8
    Residuals in seconds of arc
    160210 F51  0.0   0.1+    160211 568  0.3-  0.0     160212 568  0.1+  0.3+
    160210 F51  0.2-  0.2+    160211 568  0.4-  0.1-    160213 568  0.1-  0.0
    160210 F51  0.0   0.1-    160211 568  0.3-  0.1-    160213 568  0.1+  0.0
    160210 F51  0.3+  0.0     160212 568  0.0   0.2+    160213 568  0.0   0.1-
    160210 F51  0.1-  0.0     160212 568  0.1+  0.2+
    
    Ephemeris:
    2016 CS195               a,e,i = 1.52, 0.17, 19                  q = 1.2644
    Date    TT    R. A. (2000) Decl.     Delta      r     Elong.  Phase     V
    2016 01 15    11 49 57.5 +37 20 25   0.4742  1.3141   125.0    37.8    22.4
    ...
    2016 01 30    11 25 57.1 +33 58 52   0.4225  1.3404   141.1    27.5    21.9
    ...
    2016 02 07    11 04 54.1 +31 22 35   0.4057  1.3560   151.3    20.5    21.6
    ...
    2016 02 13    10 46 51.1 +28 54 39   0.4005  1.3683   158.8    15.1    21.4
    2016 02 14    10 43 46.0 +28 27 27   0.4004  1.3704   160.0    14.3    21.4
    2016 02 15    10 40 40.8 +27 59 34   0.4005  1.3725   161.1    13.5    21.4
    ...
    2016 02 21    10 22 30.0 +25 00 09   0.4055  1.3854   165.8    10.1    21.3
    ...
    2016 02 29    10 00 48.1 +20 42 07   0.4250  1.4032   163.4    11.6    21.5
    ...
    2016 03 15    09 33 36.0 +13 00 12   0.4983  1.4377   146.8    22.2    22.2
    
    A. U. Tomatic                (C) Copyright 2016 MPC           M.P.E.C. 2016-C174
    

    Read MPEC 2016-C173 Read MPEC 2016-C175


    MPEC number:

    Enter an MPEC number in one of the following forms:

    • 1997-B01 (the full form)
    • J97B01 (the packed version of the full form)
    • B01 (the abbreviated form)